446  
ASUS43 KBIS 221610  
RWRBIS  
 
NWR BROADCAST TEXT  
NATIONAL WEATHER SERVICE BISMARCK ND  
1000 AM CST TUE JAN 22 2019  
 
NOTE: "FAIR" INDICATES FEW OR NO CLOUDS BELOW 12,000 FEET WITH NO  
SIGNIFICANT WEATHER AND/OR S TO VISIBILITY
.  
 
 
CITY SKY/WX TMP DP RH WIND PRES REMARKS
 
WILLISTON CLOUDY 22 17 81 NW6 30.15F WCI 14  
MINOT SUNNY 9 4 80 W10 30.13R WCI -5  
MINOT AFB SUNNY 6 2 82 NW13 30.12R WCI -10  
BISMARCK MOSUNNY 15 8 73 NW16 30.15S WCI -1  
DICKINSON CLOUDY 20 16 84 NW17 30.11R WCI 5  
GARRISON N/A 10 6 84 NW17 30.12F WCI -8  
HETTINGER ARPT CLOUDY 19 15 84 NW20 30.14R WCI 3  
JAMESTOWN LGT SNOW 11 9 92 NW12 30.07R FOG WCI -3  
CARRINGTON LGT SNOW 14 10 85 NW17 30.09S WCI -3  
HAZEN FLURRIES 18 14 86 NW15 30.17S WCI 3  
LINTON FLURRIES 16 10 79 NW21G30 30.13R WCI -2  
MANDAN FAIR 10 10 100 NW16 30.12F WCI -7  
OAKES CLOUDY 9 7 92 NW14 30.09R WCI -8  
RUGBY FAIR 9 7 92 NW12 30.10R WCI -6  
STANLEY FLURRIES 16 16 100 NW12G18 30.11F WCI 3  
TIOGA CLOUDY 16 16 100 NW14 30.13S WCI 1  
WATFORD CITY CLOUDY 19 18 93 W13 30.15S WCI 7  

 
 
CITY SKY/WX TMP DP RH WIND PRES REMARKS
 
GRAND FORKS LGT SNOW 12 7 80 NW10 30.09R WCI -1  
GRAND FORKS AF LGT SNOW 12 7 79 N6 30.11R WCI 3  
DEVILS LAKE FLURRIES 12 9 87 NW17 30.09R WCI -5  
FARGO CLOUDY 11 8 88 NW8 30.09S FOG WCI -1  
CANDO LGT SNOW 12 10 92 NW13 30.11R WCI -3  
CAVALIER LGT SNOW 12 9 85 NW13 30.08S WCI -3  
GRAFTON CLOUDY 12 10 92 NW7 30.11R FOG WCI 2  
GWINNER N/A 10 7 85 NW10 30.09R WCI -3  
LANGDON LGT SNOW 10 12 100 NW15 30.05R WCI -6  
ROLLA FLURRIES 10 9 92 NW13 30.07R WCI -5  
WALHALLA N/A 12 12 100 NW17 30.09R WCI -5  

 
 
CITY SKY/WX TMP DP RH WIND PRES REMARKS
 
ABERDEEN LGT SNOW 11 6 81 NW12 30.12R WCI -3  
MOBRIDGE LGT SNOW 19 12 74 NW17 30.09R WCI 4  
BUFFALO N/A 20 15 81 NW16G25 30.14R WCI 6  
RAPID CITY SUNNY 23 16 74 N22G30 30.11R WCI 8  
GLASGOW CLEAR 19 15 84 S6 30.11F FOG WCI 11  
SIDNEY CLOUDY 22 18 85 SW6 30.17F WCI 14  
WOLF POINT CLOUDY 26 22 84 SW7 30.15F WCI 18  
GLENDIVE CLOUDY 24 19 81 SW9 30.17F WCI 14  
MILES CITY MOSUNNY 23 20 88 SW12 30.18F WCI 12  
BAKER CLOUDY 19 17 92 W16G28 30.16S WCI 4  

 
 
CITY SKY/WX TMP DP RH WIND PRES REMARKS
 
BILLINGS PTCLDY 19 13 77 SW13 30.16F WCI 6  
GREAT FALLS PTCLDY 22 16 78 SW17 30.08F WCI 8  
REGINA FOG 9 7 92 S15 30.03F VSB 5/8 WCI -8  
ESTEVAN FOG 9 7 92 W3 30.11F VSB 1/8  

 
 
 
 
CLICK HERE TO GO TO PREVIOUS BULLETINS.

The Nexlab ND Page Main Text Page